Regional Weather Roundup
Issued by NWS

Home | Current Version | Previous Version | Text Only | Print | Product List | Glossary Off
Versions: 1 2 3 4 5 6 7 8 9 10 11 12 13 14 15 16 17 18 19 20 21 22 23 24 25 26 27 28 29 30 31 32 33 34 35 36 37 38 39 40 41 42 43 44 45 46 47 48 49 50

000
ASUS43 KOAX 222202
RWRNE

WEATHER ROUNDUP FOR NEBRASKA
NATIONAL WEATHER SERVICE OMAHA NE
500 PM CDT TUE JUL 22 2014

NOTES: SATELLITE DATA IS BEING USED TO AUGMENT CLOUD COVER ABOVE
       12000 FEET.
       "FAIR" INDICATES FEW OR NO CLOUDS BELOW 12,000 FEET WITH NO
       SIGNIFICANT WEATHER AND/OR OBSTRUCTIONS TO VISIBILITY.

  * THESE STATIONS DO NOT REPORT WEATHER SUCH AS RAIN...SNOW OR FOG.

NEZ001>004-019>022-054>056-222300-
NEBRASKA PANHANDLE

CITY           SKY/WX    TMP DP  RH WIND       PRES   REMARKS
SCOTTSBLUFF    SUNNY     92  59  33 E14       30.21F HX  91
ALLIANCE       SUNNY     93  52  24 S14G20    30.23F HX  90
CHADRON        SUNNY     93  56  28 SE12G17   30.18F HX  91
KIMBALL        SUNNY     89  49  24 E9        30.27F
SIDNEY         SUNNY     96  50  20 SE16G25   30.26F HX  93
$$

NEZ057>060-069>072-079>082-222300-
SOUTHWEST NEBRASKA

CITY           SKY/WX    TMP DP  RH WIND       PRES   REMARKS
NORTH PLATTE   SUNNY     92  62  36 SE10      30.17S HX  92
IMPERIAL       SUNNY     94  59  31 E14       30.18F HX  93
LEXINGTON      SUNNY     91  60  34 E15       30.15S HX  91
MCCOOK         SUNNY     93  66  40 E10       30.14S HX  96
OGALLALA       SUNNY     91  58  33 E15       30.20F
$$

NEZ005>010-023>029-035>040-094-222300-
NORTH CENTRAL NEBRASKA

CITY           SKY/WX    TMP DP  RH WIND       PRES   REMARKS
VALENTINE      SUNNY     86  62  44 NE8       30.22S
AINSWORTH      SUNNY     82  59  45 NE10      30.22F
BROKEN BOW     SUNNY     90  66  45 NE9       30.18S HX  92
O`NEILL        SUNNY     83  58  41 N12       30.19F
ORD            SUNNY     87  66  49 NE9       30.16R
THEDFORD       SUNNY     90  63  40 E10G16    30.22S HX  90
$$

NEZ041-046>049-061>064-073>077-083>087-222300-
SOUTH CENTRAL NEBRASKA

CITY           SKY/WX    TMP DP  RH WIND       PRES   REMARKS
GRAND ISLAND   SUNNY     89  68  49 NE13      30.13S HX  93
AURORA         SUNNY     88  69  52 NE10      30.12S HX  93
HASTINGS       SUNNY     89  64  43 NE14      30.13S HX  90
HEBRON         MOSUNNY   96  73  47 N9        30.07S HX 105
HOLDREGE       SUNNY     89  65  44 NE10G16   30.14S HX  90
KEARNEY *      SUNNY     91  64  40 E16       30.14S HX  93
YORK           SUNNY     90  70  51 N16       30.11F HX  95
$$

NEZ011>018-030>034-042>045-222300-
NORTHEAST NEBRASKA

CITY           SKY/WX    TMP DP  RH WIND       PRES   REMARKS
NORFOLK        MOSUNNY   83  66  56 N17       30.14S
ALBION         SUNNY     84  66  55 N8G20     30.16R
BLAIR          SUNNY     87  60  39 NE13      30.08F
COLUMBUS *     SUNNY     88  70  55 N13       30.12F HX  92
FREMONT        SUNNY     88  68  50 N6        30.09F HX  91
WAYNE          PTSUNNY   79  71  75 N10       30.14F
$$

NEZ050>053-065>068-078-088>093-222300-
SOUTHEAST NEBRASKA

CITY           SKY/WX    TMP DP  RH WIND       PRES   REMARKS
LINCOLN        SUNNY     93  67  42 N15       30.09R HX  96
OMAHA EPPLEY   MOSUNNY   90  69  50 NE14      30.06S HX  94
BEATRICE       SUNNY     90  75  61 N13       30.06R HX 101
FALLS CITY     SUNNY     95  79  59 N9        30.00S HX 112
NEBRASKA CITY  MOSUNNY   91  76  61 N14       30.05R HX 103
PLATTSMOUTH    SUNNY     90  69  49 N14G20    30.06S HX  95
$$

NEZ044-045-051>053-067-222300-
OMAHA AREA

CITY           SKY/WX    TMP DP  RH WIND       PRES   REMARKS
OMAHA EPPLEY   MOSUNNY   90  69  50 NE14      30.06S HX  94
BLAIR          SUNNY     87  60  39 NE13      30.08F
FREMONT        SUNNY     88  68  50 N6        30.09F HX  91
MILLARD        SUNNY     89  71  56 N9        30.06F HX  94
OFFUTT AFB     SUNNY     90  75  60 N9        30.06R HX 100
PLATTSMOUTH    SUNNY     90  69  49 N14G20    30.06S HX  95
WAHOO          FAIR      89  69  50 N10G17    30.09S HX  93
$$



USA.gov is the U.S. government's official web portal to all federal, state and local government web resources and services.